Weather History for Gallup, NM

Change the Weather History Date:

Sunday, November 3, 2013

  Actual Average Record
Temperature  
Mean Temperature 47 °F -  
Max Temperature 62 °F 56 °F 73 °F (1977)
Min Temperature 33 °F 23 °F 4 °F (1991)
Degree Days  
Heating Degree Days 18    
Moisture  
Dew Point 26 °F    
Average Humidity 41    
Maximum Humidity 58    
Minimum Humidity 26    
Precipitation  
Precipitation 0.00 in - - ()
Sea Level Pressure  
Sea Level Pressure 29.75 in    
Wind  
Wind Speed 8 mph (WSW)    
Max Wind Speed 23 mph    
Max Gust Speed 33 mph    
Visibility 10 miles    
Events      
Averages and records for this station are not official NWS values.
T = Trace of Precipitation, MM = Missing Value Source: NWS Daily Summary

Daily Weather History Graph

Daily Weather History Graph

Search for Another Location

Airport:

Trip Planner

Search our weather history database for the weather conditions in past years. The results will help you decide how hot, cold, wet, or windy it might be!

Date:

Astronomy

Nov. 03, 2013 Rise Set
Actual Time 6:39 AM MST 5:17 PM MST
Civil Twilight 6:12 AM MST 5:44 PM MST
Nautical Twilight 5:42 AM MST 6:14 PM MST
Astronomical Twilight 5:12 AM MST 6:44 PM MST
Moon 6:45 AM MST (11/3) 5:36 PM MST (11/3)
Length of Visible Light 11h 31m
Length of Day
10h 38m
New Moon, 0% of the Moon is Illuminated
Nov 3
New Moon
Nov 9
First Quarter
Nov 17
Full
Nov 25
Last Quarter
Dec 2
New

Hourly Weather History & Observations

Time (MST) Temp. Windchill Dew Point Humidity Pressure Visibility Wind Dir Wind Speed Gust Speed Precip Events Conditions
12:53 AM 34.0 °F - 16.0 °F 48% 29.92 in 10.0 mi Calm Calm - N/A   Clear
1:53 AM 33.1 °F - 19.0 °F 56% 29.88 in 10.0 mi Calm Calm - N/A   Clear
1:53 AM 37.9 °F - 21.0 °F 51% 29.83 in 10.0 mi Calm Calm - N/A   Mostly Cloudy
2:53 AM 50.0 °F - 23.0 °F 35% 29.70 in 10.0 mi Variable 6.9 mph 21.9 mph N/A   Overcast
3:53 AM 41.0 °F 39.0 °F 21.0 °F 45% 29.72 in 10.0 mi West 3.5 mph - N/A   Partly Cloudy
4:53 AM 43.0 °F 40.3 °F 21.9 °F 43% 29.75 in 10.0 mi SSW 4.6 mph - N/A   Clear
5:53 AM 41.0 °F 35.8 °F 24.1 °F 51% 29.83 in 10.0 mi SSW 8.1 mph - N/A   Clear
6:53 AM 45.0 °F 39.7 °F 27.0 °F 49% 29.80 in 10.0 mi SSW 10.4 mph - N/A   Mostly Cloudy
7:53 AM 46.0 °F 42.5 °F 28.0 °F 50% 29.84 in 10.0 mi West 6.9 mph - N/A   Overcast
8:53 AM 48.0 °F - 28.0 °F 46% 29.87 in 10.0 mi West 5.8 mph - N/A   Overcast
9:53 AM 54.0 °F - 32.0 °F 43% 29.82 in 10.0 mi WSW 18.4 mph 24.2 mph N/A   Scattered Clouds
10:53 AM 57.0 °F - 30.0 °F 36% 29.82 in 10.0 mi WSW 20.7 mph 29.9 mph N/A   Mostly Cloudy
11:53 AM 60.1 °F - 30.0 °F 32% 29.77 in 10.0 mi WSW 19.6 mph 32.2 mph N/A   Clear
12:53 PM 60.1 °F - 28.0 °F 30% 29.74 in 10.0 mi West 23.0 mph 32.2 mph N/A   Scattered Clouds
1:53 PM 61.0 °F - 28.9 °F 30% 29.67 in 10.0 mi WSW 18.4 mph 28.8 mph N/A   Partly Cloudy
2:53 PM 61.0 °F - 26.1 °F 26% 29.57 in 10.0 mi WSW 23.0 mph 29.9 mph N/A   Clear
3:53 PM 61.0 °F - 26.1 °F 26% 29.63 in 10.0 mi WSW 23.0 mph 31.1 mph N/A   Partly Cloudy
4:53 PM 57.9 °F - 27.0 °F 31% 29.63 in 10.0 mi WSW 21.9 mph 33.4 mph N/A   Scattered Clouds
5:53 PM 55.0 °F - 28.0 °F 35% 29.69 in 10.0 mi WSW 13.8 mph - N/A   Clear
6:53 PM 52.0 °F - 26.1 °F 37% 29.71 in 10.0 mi West 10.4 mph - N/A   Clear
7:53 PM 48.0 °F - 26.1 °F 42% 29.74 in 10.0 mi SW 5.8 mph - N/A   Clear
8:53 PM 45.0 °F 40.6 °F 26.1 °F 48% 29.76 in 10.0 mi SW 8.1 mph - N/A   Clear
9:53 PM 46.9 °F - 27.0 °F 46% 29.69 in 10.0 mi SW 11.5 mph - N/A   Clear
10:53 PM 42.1 °F 39.2 °F 28.0 °F 58% 29.73 in 10.0 mi South 4.6 mph - N/A   Clear